Regional Weather Roundup
Issued by NWS

Home | Current Version | Previous Version | Graphics & Text | Print | Product List | Glossary On
Versions: 1 2 3 4 5 6 7 8 9 10 11 12 13 14 15 16 17 18 19 20 21 22 23 24 25 26 27 28 29 30 31 32 33 34 35 36 37 38 39 40 41 42 43 44 45 46 47 48 49 50
000
ASUS43 KOAX 252110
RWRNE

WEATHER ROUNDUP FOR NEBRASKA
NATIONAL WEATHER SERVICE OMAHA NE
300 PM CST SUN JAN 25 2015

NOTES: SATELLITE DATA IS BEING USED TO AUGMENT CLOUD COVER ABOVE
       12000 FEET.
       "FAIR" INDICATES FEW OR NO CLOUDS BELOW 12,000 FEET WITH NO
       SIGNIFICANT WEATHER AND/OR OBSTRUCTIONS TO VISIBILITY.

  * THESE STATIONS DO NOT REPORT WEATHER SUCH AS RAIN...SNOW OR FOG.

NEZ001>004-019>022-054>056-252200-
NEBRASKA PANHANDLE

CITY           SKY/WX    TMP DP  RH WIND       PRES   REMARKS
SCOTTSBLUFF    MOSUNNY   51  34  52 W8        30.06F
ALLIANCE       CLOUDY    47  35  63 NW15G26   30.02F
CHADRON        CLOUDY    50  34  54 W10       30.02F
KIMBALL        MOSUNNY   53  30  41 NW17G24   30.05F
SIDNEY         CLOUDY    52  32  46 NW15      30.07F
$$

NEZ057>060-069>072-079>082-252200-
SOUTHWEST NEBRASKA

CITY           SKY/WX    TMP DP  RH WIND       PRES   REMARKS
NORTH PLATTE   SUNNY     51  19  28 NW20G28   30.04F
IMPERIAL       SUNNY     55  22  27 NW22G30   30.05F
LEXINGTON      MOSUNNY   46  29  50 N10       30.06R
MCCOOK         SUNNY     54  21  27 N14G20    30.05F
OGALLALA       SUNNY     55  25  32 NW16G24   30.04F
$$

NEZ005>010-023>029-035>040-094-252200-
NORTH CENTRAL NEBRASKA

CITY           SKY/WX    TMP DP  RH WIND       PRES   REMARKS
VALENTINE      SUNNY     44  28  53 W14       30.03R
AINSWORTH      MOSUNNY   40  29  64 N8        30.03F
BROKEN BOW     MOSUNNY   44  29  55 N14       30.05R
O`NEILL        CLOUDY    40  35  82 NW12      30.04R WCI  33
ORD            CLOUDY    41  29  62 NW15      30.04S
THEDFORD       SUNNY     48  27  43 NW17      30.03F
$$

NEZ041-046>049-061>064-073>077-083>087-252200-
SOUTH CENTRAL NEBRASKA

CITY           SKY/WX    TMP DP  RH WIND       PRES   REMARKS
GRAND ISLAND   CLOUDY    41  30  65 N13       30.06R
AURORA         CLOUDY    41  33  72 N14G21    30.05R
HASTINGS       CLOUDY    43  28  55 N18       30.05R
HEBRON         CLOUDY    42  28  58 N13G21    30.05R
HOLDREGE       SUNNY     45  25  46 N18       30.05R
KEARNEY *      CLOUDY    46  27  46 N20       30.05S
YORK           CLOUDY    41  32  70 NW16      30.04R
$$

NEZ011>018-030>034-042>045-252200-
NORTHEAST NEBRASKA

CITY           SKY/WX    TMP DP  RH WIND       PRES   REMARKS
NORFOLK        CLOUDY    39  32  76 NW9       30.03R WCI  33
ALBION         CLOUDY    40  32  74 NW9       30.04R WCI  33
BLAIR          CLOUDY    40  29  65 N10       30.01R WCI  34
COLUMBUS *     CLOUDY    39  28  65 NW12      30.05R WCI  32
FREMONT        CLOUDY    40  32  72 N10       30.04R WCI  34
TEKAMAH        CLOUDY    41  33  73 N14       30.03R
WAYNE          CLOUDY    37  33  87 NW10      30.04R WCI  29
$$

NEZ050>053-065>068-078-088>093-252200-
SOUTHEAST NEBRASKA

CITY           SKY/WX    TMP DP  RH WIND       PRES   REMARKS
LINCOLN        CLOUDY    40  31  70 N15       30.04R WCI  32
OMAHA EPPLEY   PTSUNNY   43  32  65 N16       30.01R
BEATRICE       CLOUDY    39  31  75 N18       30.03R WCI  29
FALLS CITY     CLOUDY    40  32  73 N15G23    29.98R WCI  32
NEBRASKA CITY  CLOUDY    41  30  65 N15       29.99R
PLATTSMOUTH    CLOUDY    40  30  69 N12       30.00R WCI  32
$$

NEZ044-045-051>053-067-252200-
OMAHA AREA

CITY           SKY/WX    TMP DP  RH WIND       PRES   REMARKS
OMAHA EPPLEY   PTSUNNY   43  32  65 N16       30.01R
BLAIR          CLOUDY    40  29  65 N10       30.01R WCI  34
FREMONT        CLOUDY    40  32  72 N10       30.04R WCI  34
MILLARD        CLOUDY    41  28  59 N10G17    30.02R
OFFUTT AFB     CLOUDY    41  30  66 N16       30.01R
PLATTSMOUTH    CLOUDY    40  30  69 N12       30.00R WCI  32
WAHOO          CLOUDY    39  32  74 NW12      30.03R WCI  32
$$



USA.gov is the U.S. government's official web portal to all federal, state and local government web resources and services.